Location: Newark
(42.0700°N, 88.0492°W)
Time: 05:35:21
(UTC+00:00)

N. Korean satellite - Visible Passes

Search period start: 20 September 2019 00:00
Search period end: 30 September 2019 00:00
Orbit: 455 x 509 km, 97.2° (Epoch: 18 September)

Date Brightness Start Highest point End Pass type
(mag) Time Alt. Az. Time Alt. Az. Time Alt. Az.
21 Sep 9.9 10:53:58 10° ENE 10:55:51 14° E 10:57:45 10° SE visible
24 Sep 9.4 11:10:52 10° NE 11:13:40 23° E 11:16:29 10° SSE visible
25 Sep 10.2 10:47:03 10° ENE 10:48:16 11° E 10:49:28 10° ESE visible
28 Sep 9.7 11:03:32 10° NE 11:06:05 19° E 11:08:38 10° SE visible
